map of PRC home
Great Circle Mapper logo
PRC - Airport
Location
City:  Prescott, Arizona, United States
Name:Ernest A Love Field
ICAO / IATA:KPRC / PRC
FAA LID:PRC

Details
Type:Airport (Part 139 Class I)
Use:Public/Civil
Latitude:3439'17"N (34.654833)
Longitude:11225'09"W (-112.419221)
Datum:WGS 1984
Elevation:5044 ft (1537 m)
Variation:10.80E (WMM2015 magnetic declination)
-0.09 annual change
Runways:3
Longest:7619 × 150 ft (2322 × 45.5 m), paved

Time
Time Zone:UTC-7
Local Time:

Weather
METAR:KPRC 141353Z 18005KT 10SM CLR 01/M07 A3015 RMK AO2 SLP179 T00061067
TAF:KPRC 141130Z 1412/1512 VRB06KT P6SM SKC
FM142000 34010G20KT P6SM SCT250
FM150100 VRB06KT P6SM SCT250

Related Locations
Nearby:
Farthest:RRG: 11373 mi / 18303 km
Plaine Corail, Rodrigues Island, MU

Find:

   beyond  
but within

Other Information
Maps:
Delays:
NOTAMs:
Links:
Sources:

  
flag of United States
flag of Arizona
  

Airport Diagram

Airport diagram for PRC

Airport diagram PDF

Sectional Chart

Flight Planning
at skyvector.com

Satellite Image

Google Maps Satellite view

 

Copyright © 2004-2016 Karl L. Swartz. All rights reserved.
The Great Circle Mapper name and logo are trademarks of the Great Circle Mapper.
All other trademarks mentioned herein belong to their respective owners.
Please see credits for attibutions and further copyright information.

  Follow gcmap on Facebook Follow gcmap on Twitter Follow gcmap on Google+ GCmap on LinkedIn

hCard Microformat

Geo Microformat